DELTA 1 R/B(2) *, 2971

Orbit data source: Space-Track

DELTA 1 R/B(2) *, 2971 is space debris in HEO originally from a launch on Thu, 28 Sep 1967 UTC launched from the Air Force Eastern Test Range (AFETR). Debris objects in space refer to the collection of defunct objects orbiting the Earth. Examples of debris include non-operational satellites, rocket bodies, and fragments generated from explosions, collisions, or faulty payload assembly.

Loading next visibility...
Identifier
2971, 1967-094C
Orbit
HEO
Country
Flag of USUS
Related business
Manufacturer
UTC
Mission
Spacecraft
Bus & Motor
FW4, Unknown motor
Mass
~40 kg wet, ~40 kg dry
Launch date (UTC)
1967-09-28 (59 years ago)
Launch vehicle
Unknown
Launch site
Air Force Eastern Test Range (AFETR)
Object type
Payload
Rocket body
Debris
Shape & HBR
CYL, 1.1 m
Radar Cross Section
Large (>1 m²)

Expand to show TLE details & history
Last TLE update: 3 days ago

TLE from 3 days ago
0 DELTA 1 R/B(2) *
1  2971U 67094C   26251.77776396  .00000994  00000-0  94884-3 0  9991
2  2971  28.1720 131.9124 6524070 193.0415 134.5631  3.23181973562530
Epoch: 2026-09-08T18:39Z
TLE epoch observation values (Epoch: 2026-09-08T18:39:58.806Z)
Latitude
0.00011°
Longitude
-135.89027°
Altitude
24,084.245 km
Speed
2.355 km/s
True Right ascension
08h 47m 46s
True Declination
0° 00' 00"
Sunlit
Object was in daylight at epoch
Visualization orbit readout
Latitude
Unknown
Longitude
Unknown
Altitude
Unknown
Speed
Unknown
Apparent Right ascension
Unknown
Apparent Declination
Unknown
Sunlit
N/A
Visualization observer readout
Local Sidereal Time
13:32:13
Azimuth
Unknown
Elevation
Unknown
Doppler factor
Unknown
Orbital elements
Apogee altitude
25,559.25 km
Perigee altitude
340.07 km
Semi-major axis
19,327.797 km
Eccentricity
0.65241
Inclination
28.172°
RAAN
131.9124°
Arg. of periapsis
193.0415°
True anomaly
166.98694°
Mean anomaly
134.5631°
Eccentric anomaly
152.07107°
Mean motion
0.80774 °/min
Orbital period
445.69 mins
BSTAR
0.00094884
Loading maneuver chart data...
Computing Atmospheric mass density...
Loading historical data...
Loading historical data...
Loading historical data...
Loading historical data...
Loading historical data...
Loading historical data...
Loading historical data...
Other satellites on launch #94 in the year 1967 (1967-09-28 UTC)

Documentation

Showing up to 5 results
|